Location: downtown San Diego
(32.7310°N, 117.1990°W)
Time: 22:32:51
(UTC-08:00)

Lacrosse 4 Rocket - Pass Details

Date: 12 July 2018
Orbit: 544 x 615 km, 68.0° (Epoch: 09 December)

Event Time Altitude Azimuth Distance (km) Brightness Sun altitude
Rises 20:38:22 0° 199° (SSW) 2,820 4.8 -8.1°
Reaches altitude 10° 20:40:35 10° 198° (SSW) 1,932 4.0 -8.5°
Maximum altitude 20:44:56 77° 112° (ESE) 626 1.4 -9.2°
Drops below altitude 10° 20:49:22 10° 27° (NNE) 1,973 4.2 -10.0°
Sets 20:51:39 0° 26° (NNE) 2,885 5.1 -10.4°
